TimeCDT,TemperatureF,Dew PointF,Humidity,Sea Level PressureIn,VisibilityMPH,Wind Direction,Wind SpeedMPH,Gust SpeedMPH,PrecipitationIn,Events,Conditions,WindDirDegrees,DateUTC
12:53 AM,59.0,41.0,51,30.11,-9999.0,ESE,4.6,-,N/A,,Clear,110,2012-10-15 05:53:00
1:53 AM,57.9,41.0,53,30.08,-9999.0,SSE,8.1,-,N/A,,Clear,150,2012-10-15 06:53:00
2:53 AM,54.0,41.0,62,30.09,-9999.0,SSE,5.8,-,N/A,,Clear,160,2012-10-15 07:53:00
3:53 AM,52.0,42.1,69,30.08,-9999.0,East,3.5,-,N/A,,Clear,100,2012-10-15 08:53:00
4:53 AM,54.0,42.1,64,30.07,-9999.0,ESE,3.5,-,N/A,,Clear,110,2012-10-15 09:53:00
5:53 AM,52.0,41.0,66,30.08,-9999.0,South,4.6,-,N/A,,Clear,170,2012-10-15 10:53:00
6:53 AM,48.9,42.1,77,30.10,-9999.0,North,4.6,-,N/A,,Clear,10,2012-10-15 11:53:00
7:53 AM,48.9,42.1,77,30.11,-9999.0,North,3.5,-,N/A,,Clear,350,2012-10-15 12:53:00
8:53 AM,51.1,42.1,71,30.11,-9999.0,North,4.6,-,N/A,,Clear,360,2012-10-15 13:53:00
9:53 AM,61.0,42.1,50,30.11,10.0,Calm,Calm,-,N/A,,Clear,0,2012-10-15 14:53:00
10:53 AM,66.9,42.1,40,30.11,10.0,SE,4.6,-,N/A,,Clear,140,2012-10-15 15:53:00
11:53 AM,72.0,41.0,33,30.08,10.0,SSE,10.4,-,N/A,,Clear,160,2012-10-15 16:53:00
12:53 PM,75.0,42.1,31,30.04,10.0,SE,10.4,18.4,N/A,,Clear,140,2012-10-15 17:53:00
1:53 PM,77.0,43.0,30,30.00,10.0,SSE,15.0,19.6,N/A,,Clear,150,2012-10-15 18:53:00
2:53 PM,75.9,46.0,35,29.96,10.0,SSE,11.5,17.3,N/A,,Clear,150,2012-10-15 19:53:00
3:53 PM,78.1,46.0,32,29.94,10.0,SE,12.7,17.3,N/A,,Clear,140,2012-10-15 20:53:00
4:53 PM,79.0,46.9,32,29.91,10.0,SSE,9.2,-,N/A,,Clear,160,2012-10-15 21:53:00
5:53 PM,79.0,46.9,32,29.90,10.0,South,9.2,-,N/A,,Clear,170,2012-10-15 22:53:00
6:53 PM,75.9,50.0,40,29.90,-9999.0,SSE,5.8,-,N/A,,Clear,150,2012-10-15 23:53:00
7:53 PM,72.0,52.0,49,29.90,-9999.0,SSE,5.8,-,N/A,,Clear,150,2012-10-16 00:53:00
8:53 PM,70.0,52.0,53,29.90,-9999.0,SE,9.2,-,N/A,,Clear,130,2012-10-16 01:53:00
9:53 PM,68.0,51.1,55,29.89,-9999.0,SE,9.2,-,N/A,,Clear,130,2012-10-16 02:53:00
10:53 PM,66.9,51.1,57,29.88,-9999.0,SE,9.2,-,N/A,,Clear,130,2012-10-16 03:53:00
11:53 PM,66.0,52.0,60,29.87,-9999.0,SE,6.9,-,N/A,,Clear,130,2012-10-16 04:53:00